Location: Baia Mare
(47.6567°N, 23.5850°E)
Time: 14:51:24
(UTC+02:00)

ISS - Pass Details

Date: 06 February 2019
Orbit: 406 x 411 km, 51.6° (Epoch: 22 March)

Event Time Altitude Azimuth Distance (km) Brightness Sun altitude
Rises 20:12:24 0° 287° (WNW) 2,350 1.3 -27.0°
Reaches altitude 10° 20:14:55 10° 268° (W) 1,485 0.0 -27.4°
Enters shadow 20:16:27 17° 242° (WSW) 1,141 -1.0 -27.6°
